Terug naar catalogus

CBERS 1

ActiefWetenschapSSO
NORAD 25940·PAYLOAD·🇧🇷 Brazil🇨🇳 China

Gelanceerd Oct 14, 1999 vanaf Taiyuan Satellite Launch Center

Loading…

Volgende Passages (komende 24 uur)

TLE

VersSource: Space-Track

Epoch: Sep 14, 2026, 12:13 UTC

1 25940U 99057A   26257.50959593  .00000085  00000-0  44430-4 0  9999
2 25940  98.8506 269.5970 0006030  94.1908 265.9967 14.37032779410345

Volg CBERS 1 in realtime met AllMySat

Download on the App Store